User: anonymous   Login
Location: Unspecified
(0.0000°N, 0.0000°E)
Time: 04:18:59
(UTC+02:00)
Language:

Cosmos 407 Rocket - Orbit

View from above orbital plane
View from above orbital plane
View from above satellite
View from above satellite

Ground track
Ground track

The orbit data is extracted from the following two-line orbital elements,

1 05175U 71035B   15088.03570974  .00000391  00000-0  13837-3 0  9999
2 05175 074.0466 261.5056 0030767 310.1214 049.7244 14.37654998298361
Epoch (UTC): 29 March 2015 00:51:25
Eccentricity: 0.0030767
inclination: 74.0466°
perigee height: 744 km
apogee height: 788 km
right ascension of ascending node: 261.5056°
argument of perigee: 310.1214°
revolutions per day: 14.37654998
mean anomaly at epoch: 49.7244°
orbit number at epoch: 29836

The dashed part of the orbit path shows where the satellite is in the earth's shadow,  

DLR